User: anonymous   Login
Location: Unspecified
(0.0000°N, 0.0000°E)
Time: 14:19:51
(UTC+00:00)
Language:

Cosmos 1383 - Orbit

View from above orbital plane
View from above orbital plane
View from above satellite
View from above satellite

Ground track
Ground track

The orbit data is extracted from the following two-line orbital elements,

1 13301U 82066A   18111.89250334 +.00000042 +00000-0 +31335-4 0  9991
2 13301 082.9348 040.2890 0026871 193.5785 231.2780 13.68663704788290
Epoch (UTC): 21 April 2018 21:25:12
Eccentricity: 0.0026871
inclination: 82.9348°
perigee height: 984 km
apogee height: 1024 km
right ascension of ascending node: 40.2890°
argument of perigee: 193.5785°
revolutions per day: 13.68663704
mean anomaly at epoch: 231.2780°
orbit number at epoch: 78829

The dashed part of the orbit path shows where the satellite is in the earth's shadow,  

DLR